Simultaneous Nadir Overpasses (SNOs) Predictions

Prediction of SNOs between GOES-16 and TERRA Satellite Orbit:

Table of predicted SNOs for the next 14.0 days since TLE Epoch: 4/2/2022
Index Date Time (GOES-16) GOES-16 Lat,Lon TERRA Lat,Lon Distance(km) Time Diff (sec)
1 04/03/2022 03:11:59 -0.07, -75.21 0.39, -73.06 243.70 80
2 04/03/2022 15:33:14 0.07, -75.22 0.69, -78.23 341.01 80
3 04/05/2022 15:21:00 0.06, -75.23 0.06, -75.27 4.47 80
4 04/07/2022 15:11:26 0.06, -75.24 -0.56, -72.32 332.50 80
5 04/08/2022 03:32:49 -0.06, -75.23 -0.51, -77.52 259.38 80
6 04/10/2022 03:17:56 -0.05, -75.25 0.11, -74.57 77.95 80
7 04/12/2022 03:05:42 -0.05, -75.27 0.72, -71.61 415.82 80
8 04/12/2022 15:26:56 0.05, -75.29 0.38, -76.77 168.63 80
9 04/14/2022 15:17:23 0.04, -75.32 -0.29, -73.83 170.11 80
10 04/15/2022 03:38:46 -0.04, -75.32 -0.85, -79.01 421.06 80
